Tracking 18852 objects as of 23-Nov-2017
HD Live streaming from Space Station
objects crossing your sky now

FENGYUN 1C DEB

Track FENGYUN 1C DEB now!
10-day predictions


NORAD ID: 35183
Int'l Code: 1999-025DNP
Perigee: 623.7 km
Apogee: 770.1 km
Inclination: 98.9 °
Period: 98.6 minutes
Semi major axis: 7067 km
RCS: 0.0115 m2 (small)
Launch date: May 10, 1999
Source: People's Republic of China (PRC)
Launch site: Taiyaun Space Center, China (TSC)

Note: This is SATELLITE DEBRIS
aabbcc
Your satellite tracking list
Your tracking list is empty




NASA's NSSDC Master Catalog

Two Line Element Set (TLE):
1 35183U 99025DNP 17321.89483270 +.00001502 +00000-0 +29497-3 0  9992
2 35183 098.8574 207.6979 0103623 320.6026 038.7668 14.61060037231065
Source of the keplerian elements: AFSPC